FW0666 Weather Reports


Display with metric or nautical units.
time (UTC)temp
F
wind
direction
speed
MPH
gust
MPH
rain 1hr
in
rain 24hr
in
rain mn
in
humidity
%
barometer
mb
20200401122033 37 230 3.0 8.0 0.07 0.17 0.12 92 1017.9
20200401121528 37 261 5.0 9.0 0.06 0.16 0.11 92 1017.9
20200401121023 37 148 4.0 9.0 0.04 0.14 0.09 92 1018.0
20200401120540 37 159 3.0 7.0 0.03 0.13 0.08 92 1018.0
20200401120052 37 274 3.0 7.0 0.02 0.12 0.07 92 1017.9
20200401115531 37 259 3.0 10.0 0.01 0.11 0.06 92 1017.9
20200401115032 37 236 3.0 10.0 0.00 0.10 0.05 92 1017.9
20200401114523 37 238 3.0 9.0 0.00 0.10 0.05 92 1017.9
20200401114039 37 298 2.0 9.0 0.00 0.10 0.05 92 1017.9
20200401113540 37 252 3.0 10.0 0.00 0.10 0.05 92 1017.9
20200401113021 37 144 4.0 10.0 0.00 0.10 0.05 92 1017.9
20200401112536 37 250 3.0 8.0 0.00 0.10 0.05 92 1017.9
20200401112035 37 134 4.0 8.0 0.00 0.10 0.05 92 1018.0
20200401111535 37 184 4.0 10.0 0.00 0.10 0.05 92 1018.0
20200401111031 37 225 3.0 12.0 0.00 0.10 0.05 92 1018.0
20200401110527 37 150 3.0 12.0 0.00 0.10 0.05 92 1017.9
20200401110026 37 222 2.0 8.0 0.00 0.10 0.05 92 1017.9
20200401105523 38 180 2.0 6.0 0.00 0.10 0.05 92 1018.0
20200401105022 38 175 3.0 6.0 0.00 0.10 0.05 92 1018.0
20200401104536 38 215 3.0 4.0 0.01 0.10 0.05 92 1018.1
20200401104030 38 248 2.0 7.0 0.02 0.10 0.05 92 1018.1
20200401103526 38 165 3.0 8.0 0.02 0.10 0.05 92 1018.1
20200401103023 38 151 3.0 8.0 0.04 0.10 0.05 92 1018.1
20200401102541 38 252 3.0 7.0 0.04 0.10 0.05 92 1018.1
20200401102022 38 137 3.0 7.0 0.05 0.10 0.05 92 1018.1
20200401101540 38 232 3.0 7.0 0.05 0.10 0.05 92 1018.1
20200401101038 38 192 3.0 6.0 0.05 0.10 0.05 92 1018.2
20200401100537 38 192 1.0 5.0 0.05 0.10 0.05 92 1018.2
20200401100032 38 159 1.0 5.0 0.05 0.10 0.05 91 1018.2
20200401095530 38 142 1.0 7.0 0.05 0.14 0.05 91 1018.3
20200401095029 38 202 2.0 7.0 0.05 0.14 0.05 90 1018.3
20200401094525 38 205 3.0 7.0 0.04 0.13 0.04 90 1018.3
20200401094025 38 236 2.0 6.0 0.03 0.12 0.03 90 1018.4
20200401093522 39 249 3.0 6.0 0.02 0.11 0.02 89 1018.4
20200401093036 39 229 2.0 6.0 0.01 0.10 0.01 88 1018.5
20200401092532 39 258 2.0 6.0 0.01 0.10 0.01 88 1018.5
20200401092029 39 221 3.0 6.0 0.00 0.09 0.00 88 1018.5
20200401091527 39 195 2.0 8.0 0.00 0.09 0.00 88 1018.5
20200401091022 39 180 4.0 8.0 0.00 0.09 0.00 88 1018.5
20200401090529 39 253 3.0 7.0 0.00 0.09 0.00 88 1018.5
20200401090037 39 257 2.0 8.0 0.00 0.09 0.00 88 1018.5
20200401085542 39 163 4.0 10.0 0.00 0.11 0.00 88 1018.6
20200401085037 38 155 3.0 10.0 0.00 0.11 0.00 88 1018.6
20200401084530 38 188 2.0 5.0 0.00 0.11 0.00 89 1018.6
20200401084026 38 119 3.0 8.0 0.00 0.11 0.00 88 1018.6
20200401083532 38 267 4.0 9.0 0.00 0.11 0.00 88 1018.7
20200401083039 38 88 5.0 9.0 0.00 0.11 0.00 88 1018.7
20200401082525 38 191 5.0 9.0 0.00 0.11 0.00 89 1018.7
20200401082027 38 212 4.0 10.0 0.00 0.11 0.00 89 1018.7
20200401081530 38 195 3.0 6.0 0.00 0.11 0.00 89 1018.7
20200401081032 38 305 3.0 7.0 0.00 0.11 0.00 89 1018.8
20200401080538 38 244 3.0 8.0 0.00 0.11 0.00 89 1018.7
20200401080025 38 221 3.0 8.0 0.00 0.11 0.00 89 1018.8
20200401075530 38 290 2.0 7.0 0.00 0.11 0.00 89 1018.7
20200401075034 39 223 3.0 6.0 0.00 0.11 0.00 89 1018.8
20200401074536 39 148 2.0 5.0 0.00 0.11 0.00 88 1018.9
20200401074040 39 196 1.0 4.0 0.00 0.11 0.00 87 1018.9
20200401073525 40 250 2.0 8.0 0.00 0.11 0.00 86 1018.7
20200401073029 40 227 2.0 8.0 0.00 0.11 0.00 85 1018.8
20200401072533 40 250 3.0 9.0 0.00 0.11 0.00 83 1018.9
20200401072032 40 284 3.0 9.0 0.00 0.11 0.00 82 1018.7
20200401071533 40 268 2.0 11.0 0.00 0.11 0.00 82 1018.8
20200401071033 40 294 5.0 8.0 0.00 0.11 0.00 82 1018.8
20200401070534 40 228 2.0 7.0 0.00 0.11 0.00 84 1018.8
20200401070033 40 140 0.0 5.0 0.00 0.11 0.00 84 1018.9
20200401065534 40 136 1.0 8.0 0.00 0.11 0.11 84 1018.9
20200401065036 40 143 2.0 8.0 0.00 0.11 0.11 84 1018.9
20200401064535 40 264 4.0 8.0 0.00 0.11 0.11 84 1018.9
20200401064031 40 166 2.0 9.0 0.00 0.11 0.11 84 1019.0
20200401063529 40 168 2.0 6.0 0.00 0.11 0.11 85 1018.9
20200401063026 40 175 2.0 6.0 0.00 0.11 0.11 84 1019.0
20200401062525 40 220 2.0 6.0 0.00 0.11 0.11 85 1019.0
20200401062028 39 238 4.0 8.0 0.00 0.11 0.11 85 1019.1
20200401061525 39 186 3.0 8.0 0.00 0.11 0.11 85 1019.0
20200401061024 39 248 2.0 8.0 0.00 0.11 0.11 86 1019.1
20200401060524 39 204 3.0 8.0 0.00 0.11 0.11 86 1019.1
20200401060023 39 252 3.0 8.0 0.00 0.11 0.11 86 1019.1
20200401055522 39 213 3.0 9.0 0.00 0.14 0.11 86 1019.1
20200401055021 39 240 4.0 9.0 0.00 0.14 0.11 87 1019.2
20200401054538 39 269 2.0 8.0 0.00 0.14 0.11 88 1019.3
20200401054037 39 185 2.0 6.0 0.00 0.14 0.11 88 1019.3
20200401053537 39 237 2.0 7.0 0.00 0.14 0.11 88 1019.3
20200401053025 39 246 2.0 5.0 0.00 0.14 0.11 88 1019.3
20200401052540 40 198 3.0 7.0 0.00 0.14 0.11 88 1019.3
20200401052038 40 208 3.0 11.0 0.00 0.14 0.11 87 1019.4
20200401051537 40 155 3.0 11.0 0.01 0.14 0.11 87 1019.4
20200401051035 39 256 3.0 8.0 0.01 0.14 0.11 89 1019.5
20200401050528 39 254 3.0 7.0 0.01 0.14 0.11 90 1019.4
20200401050026 39 227 2.0 7.0 0.01 0.14 0.11 90 1019.3
20200401045523 39 279 2.0 6.0 0.01 0.15 0.11 90 1019.3
20200401045021 39 209 1.0 3.0 0.01 0.15 0.11 91 1019.4
20200401044541 39 223 2.0 3.0 0.01 0.15 0.11 91 1019.4
20200401044041 39 257 2.0 3.0 0.01 0.15 0.11 90 1019.4
20200401043538 40 257 1.0 2.0 0.01 0.15 0.11 90 1019.4
20200401043036 40 257 1.0 6.0 0.01 0.15 0.11 89 1019.4
20200401042536 41 257 1.0 10.0 0.01 0.15 0.11 88 1019.4
20200401042032 41 290 4.0 10.0 0.01 0.15 0.11 86 1019.5
20200401041530 41 258 1.0 8.0 0.00 0.14 0.10 87 1019.5
20200401041029 41 238 3.0 8.0 0.00 0.14 0.10 86 1019.4
20200401040528 41 220 1.0 5.0 0.00 0.14 0.10 86 1019.4
20200401040027 41 246 1.0 4.0 0.00 0.14 0.10 85 1019.4
20200401035528 41 272 1.0 8.0 0.00 0.16 0.10 85 1019.3
20200401035025 41 263 4.0 8.0 0.00 0.16 0.10 85 1019.2
20200401034522 41 261 2.0 5.0 0.00 0.16 0.10 85 1019.2
20200401034020 41 217 2.0 7.0 0.00 0.16 0.10 84 1019.1
20200401033537 41 264 3.0 7.0 0.00 0.16 0.10 84 1019.0
20200401033038 41 296 3.0 7.0 0.00 0.16 0.10 84 1019.1
20200401032535 41 273 3.0 6.0 0.00 0.16 0.10 84 1019.1
20200401032032 41 221 2.0 9.0 0.00 0.16 0.10 84 1019.0
20200401031528 41 248 3.0 9.0 0.00 0.16 0.10 84 1019.0
20200401031029 40 249 3.0 5.0 0.00 0.16 0.10 85 1019.0
20200401030525 40 277 3.0 5.0 0.00 0.16 0.10 84 1018.9
20200401030024 40 220 2.0 4.0 0.00 0.16 0.10 85 1019.0
20200401025522 40 210 1.0 4.0 0.00 0.28 0.10 85 1018.9
20200401025023 40 269 2.0 3.0 0.00 0.28 0.10 86 1019.0
20200401024522 41 269 2.0 3.0 0.00 0.28 0.10 84 1019.1
20200401024038 41 269 2.0 4.0 0.00 0.28 0.10 84 1019.1
20200401023537 41 271 1.0 8.0 0.00 0.28 0.10 84 1019.2
20200401023033 41 258 4.0 8.0 0.00 0.28 0.10 82 1019.2
20200401022531 42 287 2.0 5.0 0.00 0.28 0.10 85 1019.1
20200401022033 42 274 2.0 6.0 0.00 0.28 0.10 83 1019.1
20200401021534 41 275 3.0 7.0 0.00 0.28 0.10 85 1019.1
20200401021032 41 290 2.0 3.0 0.00 0.28 0.10 86 1019.1
20200401020529 41 290 1.0 3.0 0.00 0.28 0.10 88 1019.1
20200401020029 42 290 1.0 5.0 0.00 0.28 0.10 86 1019.1
20200401015525 42 278 1.0 5.0 0.00 0.30 0.10 85 1019.1
20200401015040 42 360 1.0 3.0 0.00 0.30 0.10 87 1019.0
20200401014537 43 360 1.0 3.0 0.00 0.30 0.10 83 1019.0
20200401014035 43 360 2.0 8.0 0.00 0.30 0.10 81 1019.1
20200401013534 43 360 2.0 8.0 0.00 0.30 0.10 79 1019.1
20200401013034 44 360 2.0 4.0 0.00 0.30 0.10 77 1019.2
20200401012531 44 360 2.0 6.0 0.00 0.30 0.10 76 1019.2
20200401012030 44 360 3.0 6.0 0.00 0.30 0.10 74 1019.3
20200401011525 45 360 2.0 5.0 0.00 0.30 0.10 74 1019.2
20200401011024 45 360 2.0 5.0 0.00 0.30 0.10 72 1019.2
20200401010523 45 360 2.0 6.0 0.00 0.30 0.10 70 1019.1
20200401010039 45 360 4.0 8.0 0.00 0.30 0.10 67 1019.1
20200401005534 45 360 2.0 9.0 0.00 0.39 0.10 68 1019.1
20200401005136 45 360 4.0 13.0 0.00 0.39 0.10 67 1019.0
20200401004650 46 360 5.0 13.0 0.00 0.39 0.10 66 1019.0
20200401004034 46 360 4.0 10.0 0.00 0.39 0.10 64 1019.0
20200401003531 47 360 5.0 9.0 0.00 0.39 0.10 64 1018.9
20200401003030 48 239 2.0 4.0 0.00 0.39 0.10 65 1018.8
20200401002529 47 252 0.0 4.0 0.00 0.39 0.10 67 1018.7
20200401002026 47 360 2.0 4.0 0.00 0.39 0.10 67 1018.8
20200401001523 47 177 2.0 11.0 0.00 0.39 0.10 69 1018.8
20200401001022 47 360 1.0 11.0 0.00 0.39 0.10 66 1018.7
20200401000540 48 360 2.0 8.0 0.00 0.39 0.10 66 1018.8
20200401000022 48 360 4.0 9.0 0.00 0.39 0.10 65 1018.7
20200331235537 49 92 2.0 8.0 0.00 0.39 0.10 63 1018.7
20200331235035 50 307 2.0 5.0 0.00 0.39 0.10 62 1018.5
20200331234531 50 360 1.0 5.0 0.00 0.39 0.10 66 1018.5
20200331234026 50 277 2.0 5.0 0.00 0.39 0.10 65 1018.5
20200331233521 49 104 2.0 5.0 0.00 0.39 0.10 69 1018.5
20200331233039 48 360 2.0 5.0 0.00 0.39 0.10 69 1018.6
20200331232538 48 360 2.0 5.0 0.00 0.39 0.10 66 1018.6
20200331232035 48 360 1.0 4.0 0.00 0.39 0.10 68 1018.5
20200331231531 49 20 2.0 7.0 0.00 0.39 0.10 65 1018.5
20200331231029 49 91 3.0 9.0 0.00 0.39 0.10 59 1018.4
20200331230522 50 284 4.0 13.0 0.00 0.39 0.10 58 1018.4
20200331230022 50 87 5.0 13.0 0.00 0.39 0.10 59 1018.3
20200331225521 50 240 3.0 10.0 0.00 0.40 0.10 63 1018.4
20200331225038 49 290 4.0 10.0 0.00 0.40 0.10 57 1018.4
20200331224535 50 9 3.0 11.0 0.00 0.40 0.10 57 1018.3
20200331224034 49 171 3.0 10.0 0.00 0.40 0.10 61 1018.3
20200331223530 49 123 3.0 9.0 0.00 0.40 0.10 61 1018.3
20200331223032 48 53 3.0 9.0 0.00 0.40 0.10 60 1018.2
20200331222531 49 187 3.0 10.0 0.00 0.40 0.10 62 1018.4
20200331222026 49 180 4.0 10.0 0.00 0.40 0.10 61 1018.4
20200331221524 50 312 4.0 11.0 0.00 0.40 0.10 66 1018.3
20200331221040 49 97 6.0 11.0 0.00 0.40 0.10 71 1018.4
20200331220538 49 80 3.0 6.0 0.00 0.40 0.10 67 1018.4
20200331220021 49 190 2.0 6.0 0.00 0.40 0.10 69 1018.4
20200331215520 49 24 2.0 8.0 0.00 0.41 0.10 72 1018.5
20200331215035 49 217 4.0 8.0 0.00 0.41 0.10 68 1018.5
20200331214532 48 157 3.0 12.0 0.00 0.41 0.10 67 1018.6
20200331214032 48 285 5.0 12.0 0.00 0.41 0.10 72 1018.6
20200331213528 47 360 2.0 12.0 0.00 0.41 0.10 69 1018.7
20200331213024 46 360 5.0 12.0 0.00 0.41 0.10 67 1018.7
20200331212521 47 360 2.0 8.0 0.00 0.41 0.10 68 1018.7
20200331212040 47 360 4.0 9.0 0.00 0.41 0.10 70 1018.7
20200331211535 48 132 4.0 11.0 0.00 0.41 0.10 72 1018.6
20200331211034 48 338 6.0 11.0 0.00 0.41 0.10 71 1018.6
20200331210534 48 232 4.0 10.0 0.00 0.41 0.10 70 1018.7
20200331210028 48 253 3.0 10.0 0.00 0.41 0.10 73 1018.7
20200331205524 48 278 5.0 10.0 0.00 0.41 0.10 71 1018.6
20200331205028 48 211 5.0 14.0 0.00 0.41 0.10 73 1018.6
20200331204527 48 234 5.0 14.0 0.00 0.41 0.10 73 1018.6
20200331204026 48 184 4.0 11.0 0.00 0.41 0.10 72 1018.5
20200331203522 48 144 4.0 11.0 0.00 0.41 0.10 70 1018.5
20200331203038 48 197 3.0 8.0 0.00 0.41 0.10 73 1018.4
20200331202538 48 221 3.0 8.0 0.00 0.41 0.10 75 1018.4
20200331202036 47 180 3.0 8.0 0.00 0.41 0.10 70 1018.5
20200331201531 47 360 2.0 11.0 0.00 0.41 0.10 73 1018.5
20200331201027 47 187 4.0 11.0 0.00 0.41 0.10 71 1018.6
20200331200524 49 214 5.0 11.0 0.00 0.41 0.10 71 1018.6
20200331200022 49 182 3.0 7.0 0.00 0.41 0.10 74 1018.5
20200331195520 49 187 2.0 5.0 0.00 0.41 0.10 73 1018.5
20200331195039 48 260 2.0 5.0 0.00 0.41 0.10 78 1018.5
20200331194537 47 198 2.0 6.0 0.00 0.41 0.10 78 1018.6
20200331194036 47 360 3.0 7.0 0.00 0.41 0.10 73 1018.6
20200331193532 47 215 3.0 7.0 0.00 0.41 0.10 73 1018.6
20200331193028 48 251 4.0 8.0 0.00 0.41 0.10 69 1018.5
20200331192528 48 304 4.0 10.0 0.00 0.41 0.10 73 1018.5
20200331192020 47 249 4.0 7.0 0.00 0.41 0.10 73 1018.6
20200331191535 47 326 2.0 8.0 0.00 0.41 0.10 77 1018.6
20200331191032 47 355 2.0 8.0 0.00 0.41 0.10 76 1018.6
20200331190526 47 267 3.0 8.0 0.01 0.41 0.10 79 1018.6
20200331190022 47 169 2.0 8.0 0.01 0.41 0.10 82 1018.6
20200331185611 46 336 3.0 10.0 0.01 0.41 0.10 81 1018.6
20200331185029 46 169 3.0 10.0 0.01 0.41 0.10 82 1018.6
20200331184530 45 296 2.0 9.0 0.01 0.41 0.10 85 1018.6
20200331184025 44 109 3.0 9.0 0.01 0.41 0.10 86 1018.6
20200331183520 43 360 5.0 10.0 0.01 0.41 0.10 87 1018.6
20200331183037 42 360 4.0 10.0 0.01 0.41 0.10 91 1018.7
20200331182536 42 360 4.0 8.0 0.01 0.41 0.10 89 1018.7
20200331181147 42 360 4.0 8.0 0.01 0.41 0.10 87 1018.7
20200331180530 43 360 4.0 11.0 0.00 0.40 0.09 83 1018.6
20200331180027 44 360 5.0 11.0 0.00 0.40 0.09 80 1018.5
20200331175524 44 289 4.0 9.0 0.00 0.40 0.09 80 1018.3
20200331175022 45 360 1.0 5.0 0.00 0.40 0.09 82 1018.4
20200331174523 45 360 2.0 5.0 0.00 0.40 0.09 81 1018.3
20200331174037 45 360 3.0 5.0 0.00 0.40 0.09 81 1018.3
20200331173531 44 360 2.0 6.0 0.00 0.40 0.09 83 1018.3
20200331173024 44 360 3.0 6.0 0.00 0.40 0.09 81 1018.3
20200331172540 44 251 3.0 8.0 0.00 0.40 0.09 84 1018.2
20200331172037 44 247 5.0 9.0 0.00 0.40 0.09 83 1018.2
20200331171534 44 145 4.0 8.0 0.00 0.40 0.09 84 1018.1
20200331171035 44 249 4.0 9.0 0.00 0.40 0.09 83 1018.0
20200331170528 44 289 3.0 7.0 0.00 0.40 0.09 85 1018.0
20200331170028 44 205 2.0 8.0 0.00 0.40 0.09 85 1018.0
20200331165524 43 117 2.0 8.0 0.00 0.40 0.09 86 1017.9
20200331165020 43 239 3.0 9.0 0.00 0.40 0.09 87 1017.9
20200331164520 43 262 3.0 9.0 0.00 0.40 0.09 88 1017.9
20200331163530 42 232 4.0 9.0 0.00 0.40 0.09 87 1017.8
20200331163029 42 215 3.0 9.0 0.00 0.40 0.09 88 1017.7
20200331162526 42 272 2.0 10.0 0.00 0.40 0.09 87 1017.7
20200331162022 42 238 5.0 10.0 0.00 0.40 0.09 88 1017.7
20200331161521 42 360 3.0 6.0 0.00 0.40 0.09 90 1017.7
20200331161039 42 360 4.0 6.0 0.00 0.40 0.09 89 1017.6
20200331160535 42 360 2.0 4.0 0.00 0.40 0.09 92 1017.5
20200331160033 41 360 2.0 4.0 0.00 0.40 0.09 93 1017.5
20200331155532 41 360 0.0 3.0 0.00 0.40 0.09 93 1017.5
20200331155026 41 360 1.0 4.0 0.00 0.40 0.09 93 1017.5
20200331154535 41 360 0.0 4.0 0.00 0.40 0.09 93 1017.4
20200331154019 41 360 2.0 3.0 0.00 0.40 0.09 94 1017.3
20200331153523 41 360 2.0 5.0 0.00 0.40 0.09 94 1017.3
20200331153024 40 360 2.0 5.0 0.00 0.40 0.09 94 1017.2
20200331152522 41 61 4.0 5.0 0.00 0.40 0.09 93 1017.1
20200331152036 41 65 1.0 4.0 0.00 0.40 0.09 94 1017.0
20200331151535 40 334 0.0 0.0 0.01 0.40 0.09 95 1016.9
20200331151031 39 251 0.0 1.0 0.02 0.40 0.09 95 1016.9
20200331150525 38 360 0.0 3.0 0.03 0.40 0.09 94 1016.9
20200331150025 38 253 1.0 3.0 0.03 0.40 0.09 94 1016.7
20200331145539 38 335 1.0 2.0 0.03 0.40 0.09 94 1016.8
20200331145039 38 338 0.0 3.0 0.03 0.40 0.09 94 1016.8
20200331144535 38 49 2.0 3.0 0.03 0.40 0.09 94 1016.7
20200331144033 38 49 1.0 2.0 0.03 0.40 0.09 93 1016.6
20200331143523 39 49 0.0 2.0 0.03 0.40 0.09 94 1016.6
20200331143024 39 49 1.0 2.0 0.03 0.40 0.09 93 1016.5
20200331142520 39 49 1.0 2.0 0.03 0.40 0.09 93 1016.5
20200331142034 39 49 0.0 3.0 0.02 0.39 0.08 93 1016.4
20200331141527 39 49 0.0 5.0 0.02 0.39 0.08 93 1016.5
20200331141037 39 29 1.0 5.0 0.01 0.38 0.07 92 1016.4
20200331140528 39 267 2.0 5.0 0.00 0.37 0.06 92 1016.1
20200331140026 39 278 1.0 7.0 0.00 0.37 0.06 92 1015.8
20200331135533 39 250 1.0 7.0 0.00 0.37 0.06 93 1015.9
20200331135020 39 283 1.0 5.0 0.00 0.37 0.06 93 1015.9
20200331134521 39 237 3.0 4.0 0.00 0.37 0.06 93 1015.8
20200331134023 39 320 1.0 4.0 0.00 0.37 0.06 93 1015.8
20200331133526 39 286 2.0 3.0 0.00 0.37 0.06 93 1015.6
20200331133032 39 242 1.0 3.0 0.00 0.37 0.06 92 1015.4
20200331132538 39 242 1.0 3.0 0.00 0.37 0.06 92 1015.5
20200331132022 39 242 1.0 3.0 0.00 0.37 0.06 92 1015.3
20200331131524 39 269 1.0 4.0 0.00 0.37 0.06 93 1015.2
20200331131027 39 221 1.0 4.0 0.00 0.37 0.06 93 1015.2
20200331130529 39 252 2.0 5.0 0.00 0.37 0.06 93 1015.2
20200331130031 39 227 1.0 5.0 0.00 0.37 0.06 93 1015.1
20200331125534 39 265 2.0 9.0 0.00 0.46 0.06 93 1015.2
20200331125020 39 209 4.0 9.0 0.00 0.46 0.06 94 1015.2
20200331124525 39 228 2.0 8.0 0.00 0.46 0.06 94 1015.1
20200331124027 39 205 3.0 8.0 0.00 0.46 0.06 94 1015.1
20200331123531 38 224 5.0 8.0 0.00 0.46 0.06 94 1015.2
20200331123034 38 254 3.0 9.0 0.00 0.46 0.06 94 1015.1
20200331122538 38 150 2.0 5.0 0.00 0.46 0.06 94 1015.0